EW7824 Weather Reports


Display with metric or nautical units.
time (UTC)temp
F
wind
direction
speed
MPH
gust
MPH
rain 1hr
in
rain 24hr
in
rain mn
in
humidity
%
barometer
mb
20190216114339 18 30 1.0 4.0 0.00 0.00 0.00 80 1016.0
20190216113814 18 22 1.0 3.0 0.00 0.00 0.00 80 1016.0
20190216113339 18 34 1.0 5.0 0.00 0.00 0.00 80 1016.1
20190216112832 18 29 2.0 8.0 0.00 0.00 0.00 79 1016.1
20190216112358 18 47 3.0 8.0 0.00 0.00 0.00 80 1015.9
20190216111842 18 49 2.0 5.0 0.00 0.00 0.00 80 1015.9
20190216111331 18 17 1.0 6.0 0.00 0.00 0.00 80 1015.9
20190216110816 18 65 2.0 6.0 0.00 0.00 0.00 79 1016.0
20190216110346 18 360 2.0 9.0 0.00 0.00 0.00 79 1016.1
20190216105812 18 338 4.0 9.0 0.00 0.00 0.00 79 1016.0
20190216105403 18 46 2.0 6.0 0.00 0.00 0.00 79 1015.8
20190216104832 18 355 1.0 10.0 0.00 0.00 0.00 79 1015.7
20190216104405 18 349 2.0 10.0 0.00 0.00 0.00 80 1015.8
20190216103849 18 343 2.0 9.0 0.00 0.00 0.00 80 1016.2
20190216103341 18 32 3.0 9.0 0.00 0.00 0.00 80 1016.4
20190216102827 18 22 1.0 6.0 0.00 0.00 0.00 80 1016.4
20190216101844 18 5 2.0 6.0 0.00 0.00 0.00 79 1016.3
20190216101313 18 355 4.0 7.0 0.00 0.00 0.00 79 1016.2
20190216100844 18 37 2.0 5.0 0.00 0.00 0.00 79 1016.3
20190216100345 18 17 1.0 8.0 0.00 0.00 0.00 80 1016.3
20190216095828 18 26 2.0 8.0 0.00 0.00 0.00 80 1016.3
20190216095402 18 20 2.0 5.0 0.00 0.00 0.00 79 1016.3
20190216094845 18 360 3.0 6.0 0.00 0.00 0.00 79 1016.4
20190216094338 18 30 2.0 9.0 0.00 0.00 0.00 79 1016.4
20190216093824 18 355 3.0 9.0 0.00 0.00 0.00 80 1016.4
20190216093357 19 360 2.0 6.0 0.00 0.00 0.00 80 1016.2
20190216092841 19 5 2.0 8.0 0.00 0.00 0.00 80 1016.3
20190216092319 18 5 2.0 8.0 0.00 0.00 0.00 80 1016.5
20190216091846 18 360 2.0 5.0 0.00 0.00 0.00 80 1016.6
20190216091337 18 26 1.0 5.0 0.00 0.00 0.00 81 1016.7
20190216090815 18 19 2.0 6.0 0.00 0.00 0.00 81 1016.8
20190216090327 18 20 2.0 8.0 0.00 0.00 0.00 81 1016.7
20190216085900 18 5 3.0 8.0 0.00 0.00 0.00 80 1016.7
20190216085346 18 355 2.0 5.0 0.00 0.00 0.00 81 1016.9
20190216084835 18 5 1.0 5.0 0.00 0.00 0.00 81 1017.0
20190216084400 18 341 1.0 4.0 0.00 0.00 0.00 81 1017.0
20190216083852 18 32 1.0 5.0 0.00 0.00 0.00 82 1017.0
20190216083319 18 351 1.0 5.0 0.00 0.00 0.00 82 1016.9
20190216082844 18 39 2.0 5.0 0.00 0.00 0.00 82 1017.0
20190216082334 18 24 3.0 5.0 0.00 0.00 0.00 82 1016.9
20190216081818 18 22 0.0 3.0 0.00 0.00 0.00 82 1017.1
20190216081312 18 31 2.0 3.0 0.00 0.00 0.00 82 1017.1
20190216080905 18 338 0.0 2.0 0.00 0.00 0.00 82 1017.4
20190216080329 18 49 1.0 4.0 0.00 0.00 0.00 82 1017.2
20190216075820 18 355 2.0 4.0 0.00 0.00 0.00 82 1017.4
20190216075318 18 24 1.0 6.0 0.00 0.00 0.00 82 1017.3
20190216074822 18 56 2.0 6.0 0.00 0.00 0.00 82 1017.3
20190216074318 18 321 2.0 6.0 0.00 0.00 0.00 82 1017.3
20190216073813 18 5 2.0 6.0 0.00 0.00 0.00 82 1017.4
20190216073316 18 37 2.0 9.0 0.00 0.00 0.00 83 1017.3
20190216072815 18 43 4.0 9.0 0.00 0.00 0.00 83 1017.3
20190216072312 18 360 1.0 4.0 0.00 0.00 0.00 83 1017.3
20190216071818 18 65 1.0 5.0 0.00 0.00 0.00 83 1017.1
20190216071312 18 17 2.0 8.0 0.00 0.00 0.00 83 1017.0
20190216070817 18 46 3.0 8.0 0.00 0.00 0.00 83 1017.0
20190216070313 18 28 2.0 5.0 0.00 0.00 0.00 84 1017.2
20190216065811 18 33 2.0 5.0 0.00 0.00 0.00 83 1017.3
20190216065317 18 360 3.0 9.0 0.00 0.00 0.00 83 1017.4
20190216064815 18 335 4.0 9.0 0.00 0.00 0.00 83 1017.2
20190216064319 18 18 3.0 8.0 0.00 0.00 0.00 84 1017.4
20190216063814 18 19 2.0 4.0 0.00 0.00 0.00 84 1017.4
20190216063308 18 5 2.0 8.0 0.00 0.00 0.00 84 1017.2
20190216062813 18 5 3.0 8.0 0.00 0.00 0.00 84 1016.9
20190216062308 18 32 2.0 6.0 0.00 0.00 0.00 84 1017.0
20190216061808 18 32 2.0 6.0 0.00 0.00 0.00 84 1017.0
20190216061313 18 29 2.0 8.0 0.00 0.00 0.00 84 1017.1
20190216060810 18 5 3.0 8.0 0.00 0.00 0.00 84 1017.1
20190216060310 18 350 2.0 8.0 0.00 0.00 0.00 84 1017.1
20190216055903 18 34 4.0 8.0 0.00 0.00 0.00 84 1017.3
20190216055346 18 37 2.0 9.0 0.00 0.00 0.00 84 1017.6
20190216054822 18 332 3.0 9.0 0.00 0.00 0.00 84 1017.7
20190216054349 18 44 2.0 9.0 0.00 0.00 0.00 84 1017.7
20190216053836 18 10 3.0 9.0 0.00 0.00 0.00 84 1017.7
20190216053328 18 24 4.0 9.0 0.00 0.00 0.00 84 1017.9
20190216052818 18 5 2.0 9.0 0.00 0.00 0.00 84 1018.1
20190216052404 18 345 3.0 10.0 0.00 0.00 0.00 84 1017.8
20190216051856 18 5 4.0 10.0 0.00 0.00 0.00 84 1017.7
20190216051342 18 5 2.0 7.0 0.00 0.00 0.00 84 1017.8
20190216050835 18 331 2.0 9.0 0.00 0.00 0.00 84 1017.7
20190216050401 18 38 4.0 10.0 0.00 0.00 0.00 84 1017.9
20190216045838 18 18 2.0 8.0 0.00 0.00 0.00 84 1017.9
20190216045327 18 355 3.0 8.0 0.00 0.00 0.00 84 1017.9
20190216044901 18 21 2.0 8.0 0.00 0.00 0.00 84 1017.9
20190216044349 18 5 3.0 10.0 0.00 0.00 0.00 84 1017.8
20190216043842 18 333 2.0 10.0 0.00 0.00 0.00 84 1017.6
20190216043327 18 32 4.0 9.0 0.00 0.00 0.00 84 1017.6
20190216042902 18 19 2.0 10.0 0.00 0.00 0.00 84 1017.5
20190216042348 18 89 5.0 10.0 0.00 0.00 0.00 84 1017.6
20190216041826 18 25 3.0 8.0 0.00 0.00 0.00 84 1017.7
20190216041313 18 327 2.0 11.0 0.00 0.00 0.00 84 1017.7
20190216040906 18 36 3.0 11.0 0.00 0.00 0.00 84 1017.6
20190216040327 18 39 3.0 11.0 0.00 0.00 0.00 84 1017.6
20190216035901 18 61 4.0 11.0 0.00 0.00 0.00 84 1017.9
20190216035349 18 13 2.0 10.0 0.00 0.00 0.00 84 1017.9
20190216034844 18 17 3.0 12.0 0.00 0.00 0.00 84 1017.7
20190216034315 18 15 5.0 12.0 0.00 0.00 0.00 84 1017.7
20190216033853 18 351 3.0 10.0 0.00 0.00 0.00 84 1017.7
20190216033336 18 76 4.0 12.0 0.00 0.00 0.00 84 1017.7
20190216032903 18 360 2.0 12.0 0.00 0.00 0.00 84 1017.8
20190216032354 18 337 6.0 12.0 0.00 0.00 0.00 84 1017.9
20190216031850 18 11 3.0 9.0 0.00 0.00 0.00 84 1017.9
20190216031335 18 349 2.0 13.0 0.00 0.00 0.00 84 1017.9
20190216030830 18 355 5.0 13.0 0.00 0.00 0.00 84 1017.7
20190216030355 18 342 4.0 12.0 0.00 0.00 0.00 83 1017.7
20190216025851 18 5 3.0 11.0 0.00 0.00 0.00 84 1017.7
20190216025323 18 46 3.0 9.0 0.00 0.00 0.00 84 1017.7
20190216024817 18 360 3.0 11.0 0.00 0.00 0.00 84 1018.1
20190216024400 18 19 2.0 11.0 0.00 0.00 0.00 84 1018.0
20190216023855 18 5 3.0 9.0 0.00 0.00 0.00 84 1017.7
20190216023349 18 13 1.0 9.0 0.00 0.00 0.00 84 1017.8
20190216022837 18 5 4.0 12.0 0.00 0.00 0.00 84 1017.9
20190216022331 18 33 4.0 12.0 0.00 0.00 0.00 84 1018.0
20190216021858 18 337 2.0 10.0 0.00 0.00 0.00 84 1018.1
20190216021328 18 13 4.0 10.0 0.00 0.00 0.00 83 1018.1
20190216020336 18 5 2.0 8.0 0.00 0.00 0.00 84 1017.9
20190216015832 18 309 3.0 10.0 0.00 0.00 0.00 83 1017.8
20190216015317 18 22 4.0 10.0 0.00 0.00 0.00 83 1017.5
20190216014809 18 335 4.0 14.0 0.00 0.00 0.00 83 1017.3
20190216014403 18 25 6.0 14.0 0.00 0.00 0.00 82 1017.3
20190216013849 18 11 4.0 15.0 0.00 0.00 0.00 83 1017.3
20190216013328 18 355 2.0 8.0 0.00 0.00 0.00 82 1017.5
20190216012853 18 335 2.0 11.0 0.00 0.00 0.00 82 1017.6
20190216012339 18 328 4.0 11.0 0.00 0.00 0.00 82 1017.7
20190216011832 18 22 3.0 9.0 0.00 0.00 0.00 82 1017.4
20190216011358 18 31 3.0 6.0 0.00 0.00 0.00 82 1017.5
20190216010853 18 360 2.0 6.0 0.00 0.00 0.00 83 1017.5
20190216010358 18 350 2.0 5.0 0.00 0.00 0.00 83 1017.4
20190216005853 18 360 2.0 8.0 0.00 0.00 0.00 83 1017.4
20190216005339 18 16 4.0 9.0 0.00 0.00 0.00 83 1017.2
20190216004817 18 27 4.0 12.0 0.00 0.00 0.00 82 1016.8
20190216004342 18 35 4.0 14.0 0.00 0.00 0.00 82 1017.0
20190216003834 18 33 5.0 11.0 0.00 0.00 0.00 82 1016.8
20190216003319 18 339 4.0 11.0 0.00 0.00 0.00 82 1016.8
20190216002813 18 5 2.0 10.0 0.00 0.00 0.00 82 1016.7
20190216002356 18 26 3.0 10.0 0.00 0.00 0.00 82 1016.7
20190216001850 18 19 4.0 11.0 0.00 0.00 0.00 82 1016.7
20190216001343 18 5 5.0 14.0 0.00 0.00 0.00 81 1016.7
20190216000823 18 15 4.0 12.0 0.00 0.00 0.00 81 1016.5
20190216000334 18 17 2.0 8.0 0.00 0.00 0.00 81 1016.6
20190215235826 18 348 3.0 12.0 0.00 0.00 0.00 81 1016.4
20190215235319 18 24 5.0 12.0 0.00 0.00 0.00 81 1016.1
20190215234903 19 346 2.0 11.0 0.00 0.00 0.00 81 1016.3
20190215234356 18 5 4.0 13.0 0.00 0.00 0.00 81 1016.1
20190215233842 18 355 4.0 13.0 0.00 0.00 0.00 80 1016.3
20190215233336 19 360 3.0 12.0 0.00 0.00 0.00 81 1016.2
20190215232831 19 5 5.0 12.0 0.00 0.00 0.00 80 1016.3
20190215232357 19 5 3.0 9.0 0.00 0.00 0.00 81 1016.2
20190215231827 19 5 4.0 9.0 0.00 0.00 0.00 81 1015.8
20190215231359 19 26 3.0 9.0 0.00 0.00 0.00 81 1016.1
20190215230844 19 317 3.0 12.0 0.00 0.00 0.00 80 1016.1
20190215230318 19 348 3.0 10.0 0.00 0.00 0.00 81 1015.9
20190215225903 19 26 3.0 10.0 0.00 0.00 0.00 81 1015.9
20190215225356 19 346 3.0 9.0 0.00 0.00 0.00 81 1016.0
20190215224842 19 313 2.0 6.0 0.00 0.00 0.00 81 1015.9
20190215224320 20 350 3.0 9.0 0.00 0.00 0.00 81 1016.0
20190215223901 20 346 3.0 9.0 0.00 0.00 0.00 80 1016.1
20190215223334 20 320 3.0 13.0 0.00 0.00 0.00 81 1015.7
20190215222901 20 44 4.0 13.0 0.00 0.00 0.00 80 1015.5
20190215222346 20 338 5.0 15.0 0.00 0.00 0.00 79 1015.3
20190215221841 20 24 5.0 15.0 0.00 0.00 0.00 80 1015.2
20190215221336 20 10 3.0 10.0 0.00 0.00 0.00 80 1015.4
20190215220902 20 309 4.0 10.0 0.00 0.00 0.00 80 1015.3
20190215220336 20 355 4.0 9.0 0.00 0.00 0.00 80 1015.4
20190215215902 20 355 4.0 11.0 0.00 0.00 0.00 80 1015.4
20190215215333 20 333 4.0 10.0 0.00 0.00 0.00 79 1015.3
20190215214859 20 5 3.0 10.0 0.00 0.00 0.00 80 1015.4
20190215214353 20 355 2.0 6.0 0.00 0.00 0.00 79 1015.2
20190215213845 20 340 3.0 13.0 0.00 0.00 0.00 80 1015.1
20190215213334 20 360 3.0 13.0 0.00 0.00 0.00 80 1015.3
20190215212831 20 304 3.0 12.0 0.00 0.00 0.00 79 1015.2
20190215212359 20 290 4.0 12.0 0.00 0.00 0.00 79 1015.4
20190215211856 20 345 3.0 12.0 0.00 0.00 0.00 80 1015.4
20190215211329 20 342 3.0 12.0 0.00 0.00 0.00 79 1015.1
20190215210809 20 13 4.0 10.0 0.00 0.00 0.00 81 1014.8
20190215210353 20 346 2.0 17.0 0.00 0.00 0.00 81 1014.8
20190215205849 20 355 6.0 17.0 0.00 0.00 0.00 80 1014.8
20190215205335 20 355 4.0 14.0 0.00 0.00 0.00 80 1014.9
20190215204831 20 325 4.0 11.0 0.00 0.00 0.00 80 1014.9
20190215204401 20 341 5.0 11.0 0.00 0.00 0.00 80 1015.1
20190215203857 20 316 5.0 11.0 0.00 0.00 0.00 80 1015.2
20190215203329 20 5 3.0 8.0 0.00 0.00 0.00 81 1015.0
20190215202818 20 355 4.0 12.0 0.00 0.00 0.00 81 1014.8
20190215202314 20 335 3.0 12.0 0.00 0.00 0.00 81 1014.5
20190215201810 20 16 4.0 16.0 0.00 0.00 0.00 80 1014.6
20190215201355 20 360 7.0 16.0 0.00 0.00 0.00 80 1014.4
20190215200852 20 17 4.0 14.0 0.00 0.00 0.00 80 1014.4
20190215200401 21 350 6.0 14.0 0.00 0.00 0.00 80 1014.3
20190215195858 21 330 5.0 10.0 0.00 0.00 0.00 80 1014.5
20190215195329 21 5 3.0 12.0 0.00 0.00 0.00 81 1014.3
20190215194858 21 5 3.0 16.0 0.00 0.00 0.00 81 1014.4
20190215194353 21 19 6.0 16.0 0.00 0.00 0.00 81 1014.3
20190215193843 21 355 6.0 14.0 0.00 0.00 0.00 80 1014.4
20190215193338 21 5 4.0 16.0 0.00 0.00 0.00 81 1014.3
20190215192835 21 59 9.0 16.0 0.00 0.00 0.00 81 1014.1
20190215192404 21 36 5.0 14.0 0.00 0.00 0.00 82 1014.1
20190215191853 21 32 8.0 15.0 0.00 0.00 0.00 81 1014.2
20190215191334 21 320 8.0 17.0 0.00 0.00 0.00 80 1014.3
20190215190902 21 326 7.0 17.0 0.00 0.00 0.00 81 1014.5
20190215190339 21 11 5.0 14.0 0.00 0.00 0.00 82 1014.6
20190215185828 21 321 6.0 14.0 0.00 0.00 0.00 82 1014.4
20190215185355 21 51 8.0 14.0 0.00 0.00 0.00 81 1014.6
20190215184851 21 338 4.0 13.0 0.00 0.00 0.00 82 1014.5
20190215184400 21 9 8.0 16.0 0.00 0.00 0.00 81 1014.6
20190215183856 21 11 7.0 17.0 0.00 0.00 0.00 81 1014.7
20190215183328 21 342 8.0 17.0 0.00 0.00 0.00 82 1014.6
20190215182817 21 33 5.0 15.0 0.00 0.00 0.00 81 1014.6
20190215182313 21 14 6.0 14.0 0.00 0.00 0.00 81 1014.8
20190215181810 21 355 5.0 13.0 0.00 0.00 0.00 83 1014.9
20190215181359 21 28 7.0 13.0 0.00 0.00 0.00 83 1014.9
20190215180856 20 37 6.0 14.0 0.00 0.00 0.00 82 1015.0
20190215180325 20 26 7.0 17.0 0.00 0.00 0.00 82 1014.9
20190215175902 20 14 7.0 16.0 0.00 0.00 0.00 82 1015.1
20190215175332 20 323 4.0 15.0 0.00 0.00 0.00 83 1015.3
20190215174901 20 326 5.0 13.0 0.00 0.00 0.00 82 1015.3
20190215174358 20 355 6.0 12.0 0.00 0.00 0.00 82 1015.4
20190215173847 20 38 5.0 10.0 0.00 0.00 0.00 82 1015.5
20190215173344 20 306 3.0 9.0 0.00 0.00 0.00 82 1015.6
20190215172834 20 355 3.0 9.0 0.00 0.00 0.00 82 1015.6
20190215172327 20 360 3.0 13.0 0.00 0.00 0.00 82 1015.7
20190215171852 20 31 5.0 11.0 0.00 0.00 0.00 83 1015.8
20190215171331 20 351 4.0 10.0 0.00 0.00 0.00 83 1015.8
20190215170812 20 343 2.0 15.0 0.00 0.00 0.00 82 1015.7
20190215170356 20 340 3.0 15.0 0.00 0.00 0.00 83 1015.8
20190215165844 20 337 3.0 9.0 0.00 0.00 0.00 84 1015.8
20190215165340 20 339 4.0 11.0 0.00 0.00 0.00 83 1015.7
20190215164828 20 5 5.0 12.0 0.00 0.00 0.00 83 1015.5
20190215164405 20 355 5.0 12.0 0.00 0.00 0.00 84 1015.3
20190215163845 20 29 2.0 11.0 0.00 0.00 0.00 84 1015.1
20190215163326 20 355 4.0 11.0 0.00 0.00 0.00 84 1014.9
20190215162853 20 19 4.0 11.0 0.00 0.00 0.00 83 1015.0
20190215162341 20 346 4.0 12.0 0.00 0.00 0.00 84 1014.7
20190215161835 20 355 3.0 12.0 0.00 0.00 0.00 83 1014.7
20190215161328 20 5 3.0 9.0 0.00 0.00 0.00 85 1014.9
20190215160809 20 16 2.0 9.0 0.00 0.00 0.00 85 1014.9
20190215160351 20 43 3.0 9.0 0.00 0.00 0.00 84 1014.9
20190215155837 20 350 3.0 6.0 0.00 0.00 0.00 84 1015.1
20190215155315 20 347 2.0 8.0 0.00 0.00 0.00 84 1015.0
20190215154844 20 360 2.0 14.0 0.00 0.00 0.00 84 1015.0
20190215154340 20 351 4.0 14.0 0.00 0.00 0.00 84 1015.0
20190215153829 20 344 3.0 8.0 0.00 0.00 0.00 84 1014.7
20190215153359 20 343 2.0 6.0 0.00 0.00 0.00 85 1014.6
20190215152856 20 25 2.0 12.0 0.00 0.00 0.00 84 1014.5
20190215152352 20 28 3.0 15.0 0.00 0.00 0.00 83 1014.2
20190215151842 20 320 4.0 16.0 0.00 0.00 0.00 82 1014.1
20190215151322 20 19 7.0 16.0 0.00 0.00 0.00 83 1013.9
20190215150350 20 342 2.0 11.0 0.00 0.00 0.00 84 1013.9
20190215145839 20 317 4.0 10.0 0.00 0.00 0.00 83 1013.8
20190215145334 21 36 3.0 12.0 0.00 0.00 0.00 83 1013.7
20190215144824 21 13 3.0 10.0 0.00 0.00 0.00 83 1013.6
20190215143856 21 69 6.0 16.0 0.00 0.00 0.00 83 1013.2
20190215143330 21 322 5.0 12.0 0.00 0.00 0.00 83 1013.2
20190215142827 21 5 5.0 11.0 0.00 0.00 0.00 83 1013.1
20190215142355 21 360 5.0 16.0 0.00 0.00 0.00 82 1013.1
20190215141852 21 13 7.0 16.0 0.00 0.00 0.00 82 1013.2
20190215141348 21 51 3.0 12.0 0.00 0.00 0.00 82 1013.0
20190215140904 21 336 6.0 13.0 0.00 0.00 0.00 82 1012.8
20190215140340 21 10 4.0 13.0 0.00 0.00 0.00 82 1012.8
20190215135830 21 36 3.0 10.0 0.00 0.00 0.00 81 1012.6
20190215135310 21 15 3.0 13.0 0.00 0.00 0.00 81 1012.8
20190215134839 21 40 4.0 15.0 0.00 0.00 0.00 79 1012.8
20190215134329 21 360 6.0 15.0 0.00 0.00 0.00 78 1012.9
20190215133825 21 21 6.0 13.0 0.00 0.00 0.00 78 1012.8
20190215133354 21 16 6.0 14.0 0.00 0.00 0.00 77 1012.2
20190215132851 21 11 6.0 14.0 0.00 0.00 0.00 76 1012.0
20190215132347 22 5 4.0 12.0 0.00 0.00 0.00 77 1012.2
20190215131835 22 43 3.0 11.0 0.00 0.00 0.00 77 1012.3
20190215131309 22 355 4.0 12.0 0.00 0.00 0.00 76 1012.4
20190215130845 22 5 3.0 11.0 0.00 0.00 0.00 76 1012.7
20190215130355 22 13 4.0 11.0 0.00 0.00 0.00 76 1012.6
20190215125851 22 13 3.0 10.0 0.00 0.00 0.00 76 1012.4
20190215125341 22 29 4.0 10.0 0.00 0.00 0.00 76 1012.6
20190215124837 22 340 1.0 16.0 0.00 0.00 0.00 75 1012.7
20190215124327 22 5 2.0 16.0 0.00 0.00 0.00 73 1012.9
20190215123808 22 333 1.0 9.0 0.00 0.00 0.00 74 1012.8
20190215123354 22 333 1.0 9.0 0.00 0.00 0.00 74 1012.9
20190215122829 22 338 3.0 9.0 0.00 0.00 0.00 75 1012.8
20190215122326 22 96 0.0 7.0 0.00 0.00 0.00 75 1012.8
20190215121823 22 80 2.0 8.0 0.00 0.00 0.00 75 1012.3
20190215121313 22 5 3.0 13.0 0.00 0.00 0.00 74 1012.0
20190215120342 22 24 4.0 20.0 0.00 0.00 0.00 71 1012.2
20190215115838 23 49 7.0 20.0 0.00 0.00 0.00 70 1011.9
20190215115313 23 322 8.0 18.0 0.00 0.00 0.00 67 1011.8
20190215114840 23 17 9.0 18.0 0.00 0.00 0.00 66 1012.0